Location: Unspecified
(41.1637°N, 24.2901°E)
Time: 15:07:23
(UTC+02:00)

ISS - Pass Details

Date: 02 July 2022
Orbit: 414 x 420 km, 51.6° (Epoch: 05 July)

Event Time Altitude Azimuth Distance (km) Brightness Sun altitude
Exits shadow 02:35:35 44° 289° (WNW) 587 -3.2 -19.2°
Maximum altitude 02:36:12 52° 329° (NNW) 527 -3.2 -19.1°
Drops below altitude 10° 02:39:30 10° 47° (NE) 1,500 0.2 -18.8°
Sets 02:41:38 0° 52° (NE) 2,367 1.4 -18.6°
